星链-31858 (STARLINK-31858 )

导读

STARLINK-31858是美国SpaceX星链互联网卫星星座中的一员,于2024年5月6日发射升空,旨在为全球提供低延迟、高速率的卫星互联网覆盖服务。星链系统通过大规模低轨卫星组网,服务覆盖偏远地区、移动载具及远洋航行,该卫星的入轨进一步扩充了星座规模,提升了服务覆盖能力与网络容量。

基本信息
目录编号:
59658
目录名称:
STARLINK-31858
国际标识:
2024-084E
轨道中心:
EARTH
卫星名称:
星链-31858
卫星全名:
星链-31858 (STARLINK-31858 )
卫星状态:
在轨 (已飞行851 天)
发射日期:
2024-05-06 UTC
国别 :
美国 (US)
星等 :
--
轨道信息
数据来源 国际轨道数据
星历时间: 2026-09-04T09:07:02+0800
8小时前
查看轨道信息
半长轴: 6861.19km
偏心率: 0.0001014
轨道倾角: 43.002°
近地点辐角 278.152°
升交点赤经 114.261°
平近点角 81.921°
近地点: 482.357km
远地点: 483.749km
周期: 94.267分钟
每日圈数: 15.27579
详细信息
固有亮度:
5
最大亮度:
1.5
卫星平台:
Starlink v2.0 mini
覆盖范围:
全球
运营商:
太空探索技术公司
运营商所在国:
美国
制造商(研发单位):
太空探索技术公司
制造商所在国:
美国
使用方式:
暂无
卫星简介
星链(Starlink)计划是由太空探索技术公司(SpaceX)提出的一个巨型低轨卫星互联网星座项目,计划在2019年至2024年间在太空搭建由约1.2万颗卫星组成的“星链”网络,其中1584颗将部署在地球上空550千米处的近地轨道,并从2020年开始工作。该卫星仍在工作。
2D轨道图
3D轨道图
轨道高度分析图
轨道倾角分析图
轨道综合分析图
查看轨道综合分析图
交会数据列表
事件ID 空间交会对象 最接近时刻(TCA) 交会距离 交会风险概率(CRP) 交会风险指数(CRI) 操作
CDM_260905-114605-965806-784421
2026-09-05T
11:46:19+0000
0.746 km
远距离
5.269E-5 中风险 0.69
CDM_260905-102905-965806-658921
2026-09-05T
10:29:13+0000
0.778 km
远距离
1.312339E-5 中风险 0.57
CDM_260905-080805-965806-658921
2026-09-05T
08:08:00+0000
0.876 km
远距离
8.809675E-6 低风险 0.54
CDM_260904-064305-717305-965823
OBJECT H (57173)
2026-09-04T
06:43:41+0000
1.732 km
极远距离
4.151593E-6 低风险 0.47
CDM_260905-132005-965806-784421
2026-09-05T
13:20:28+0000
1.660 km
极远距离
3.644751E-6 低风险 0.46
CDM_260905-094205-965806-658921
2026-09-05T
09:42:09+0000
1.231 km
极远距离
2.79636E-6 低风险 0.44
CDM_260905-035405-965806-205121
2026-09-05T
03:54:57+0000
2.261 km
极远距离
1.657971E-6 低风险 0.39
CDM_260905-101205-965806-784421
2026-09-05T
10:12:10+0000
2.993 km
极远距离
1.04965E-6 低风险 0.35
CDM_260905-085505-965806-658921
2026-09-05T
08:55:04+0000
2.828 km
极远距离
4.196798E-7 极低风险 0.27
CDM_260905-063305-965806-658921
2026-09-05T
06:33:50+0000
2.873 km
极远距离
4.124128E-7 极低风险 0.27